User: anonymous   Login
Location: Marseilles
(40.7010°N, 83.3930°W)
Time: 06:12:34
(UTC-04:00)
Language:

Cosmos 1459 Rocket - Orbit

View from above orbital plane
View from above orbital plane
View from above satellite
View from above satellite

Ground track
Ground track

The orbit data is extracted from the following two-line orbital elements,

1 14059U 83042B   14297.94944184  .00000191  00000-0  17200-3 0  4160
2 14059 082.9738 059.0426 0043969 100.7499 027.6910 13.78468880582637
Epoch (UTC): 24 October 2014 22:47:11
Eccentricity: 0.0043969
inclination: 82.9738°
perigee height: 937 km
apogee height: 1001 km
right ascension of ascending node: 59.0426°
argument of perigee: 100.7499°
revolutions per day: 13.78468880
mean anomaly at epoch: 27.6910°
orbit number at epoch: 58263

The dashed part of the orbit path shows where the satellite is in the earth's shadow,  

DLR